User: anonymous
Location: Mentone
(34.5413°N, 85.5351°W)
Time: 06:36:02
(UTC-05:00)
Language:

AO-Echo - Orbit

View from above orbital plane
View from above orbital plane
View from above satellite
View from above satellite

Ground track
Ground track

The orbit data is extracted from the following two-line orbital elements,

1 28375U 04025K   14244.91245865  .00000139  00000-0  53943-4 0  9206
2 28375 098.2562 189.2327 0084343 120.2358 240.7215 14.41417016534961
Epoch (UTC): 01 September 2014 21:53:56
Eccentricity: 0.0084343
inclination: 98.2562°
perigee height: 693 km
apogee height: 814 km
right ascension of ascending node: 189.2327°
argument of perigee: 120.2358°
revolutions per day: 14.41417016
mean anomaly at epoch: 240.7215°
orbit number at epoch: 53496

The dashed part of the orbit path shows where the satellite is in the earth's shadow,  

DLR